TimeMDT,TemperatureF,Dew PointF,Humidity,Sea Level PressureIn,VisibilityMPH,Wind Direction,Wind SpeedMPH,Gust SpeedMPH,PrecipitationIn,Events,Conditions,WindDirDegrees,DateUTC
12:53 AM,39.9,15.1,36,30.14,10.0,Calm,Calm,-,N/A,,Clear,0,2012-10-30 06:53:00
1:53 AM,35.1,16.0,46,30.14,10.0,Calm,Calm,-,N/A,,Clear,0,2012-10-30 07:53:00
2:53 AM,30.9,12.9,47,30.16,10.0,Calm,Calm,-,N/A,,Clear,0,2012-10-30 08:53:00
3:53 AM,30.9,14.0,50,30.15,10.0,NE,3.5,-,N/A,,Clear,40,2012-10-30 09:53:00
5:53 AM,30.9,14.0,50,30.18,10.0,North,6.9,-,N/A,,Clear,360,2012-10-30 11:53:00
6:53 AM,26.1,12.0,55,30.23,10.0,East,4.6,-,N/A,,Clear,80,2012-10-30 12:53:00
7:53 AM,27.0,12.9,56,30.26,10.0,NE,3.5,-,N/A,,Clear,50,2012-10-30 13:53:00
8:53 AM,36.0,17.1,46,30.25,10.0,NE,3.5,-,N/A,,Clear,40,2012-10-30 14:53:00
9:53 AM,43.0,18.0,37,30.24,10.0,Calm,Calm,-,N/A,,Clear,0,2012-10-30 15:53:00
10:53 AM,52.0,19.0,27,30.23,10.0,Calm,Calm,-,N/A,,Clear,0,2012-10-30 16:53:00
11:53 AM,57.0,17.1,21,30.20,10.0,Calm,Calm,-,N/A,,Clear,0,2012-10-30 17:53:00
12:53 PM,61.0,15.1,17,30.14,10.0,WSW,4.6,-,N/A,,Clear,250,2012-10-30 18:53:00
1:53 PM,64.0,12.9,14,30.11,10.0,Variable,4.6,-,N/A,,Clear,0,2012-10-30 19:53:00
2:53 PM,66.0,15.1,14,30.09,10.0,WSW,11.5,-,N/A,,Clear,250,2012-10-30 20:53:00
3:53 PM,64.9,16.0,15,30.09,10.0,SSW,11.5,20.7,N/A,,Clear,210,2012-10-30 21:53:00
4:53 PM,64.9,17.1,16,30.07,10.0,South,15.0,-,N/A,,Clear,190,2012-10-30 22:53:00
5:53 PM,64.0,9.0,12,30.06,10.0,WSW,15.0,19.6,N/A,,Clear,250,2012-10-30 23:53:00
6:53 PM,57.9,10.9,16,30.13,10.0,WSW,15.0,-,N/A,,Clear,250,2012-10-31 00:53:00
7:53 PM,48.9,16.0,27,30.18,10.0,NW,5.8,-,N/A,,Clear,320,2012-10-31 01:53:00
8:53 PM,46.0,17.1,31,30.16,10.0,NNW,5.8,-,N/A,,Clear,340,2012-10-31 02:53:00
9:53 PM,43.0,15.1,32,30.17,10.0,NNE,3.5,-,N/A,,Clear,20,2012-10-31 03:53:00
10:53 PM,41.0,15.1,35,30.14,10.0,NNE,5.8,-,N/A,,Clear,30,2012-10-31 04:53:00
11:53 PM,39.0,15.1,38,30.13,10.0,North,6.9,-,N/A,,Clear,10,2012-10-31 05:53:00